Location: Zagreb
(45.8000°N, 16.0000°E)
Time: 09:59:53
(UTC+01:00)

BlueWalker 3 - Pass Details

Date: 08 December 2022
Orbit: 499 x 517 km, 53.2° (Epoch: 01 February)

Event Time Altitude Azimuth Distance (km) Brightness Sun altitude
Rises 18:29:29 0° 301° (WNW) 2,626 6.3 -23.2°
Reaches altitude 10° 18:31:42 10° 299° (WNW) 1,733 5.3 -23.5°
Enters shadow 18:35:12 64° 259° (WSW) 567 2.3 -24.1°
